Vertical_Velocity
22 19 19 4 -10 -5 4 2 -1 -5 0 1 7 -4 -2 -0 3 -2 1 6 8 -2
6 -1 -4 -4 -9 2 4 3 1 0 -3 2 11 0 -2 3 6 1 1 4 0 2
-2 -7 -6 -4 1 -6 5 -0 6 -0 -4 1 -1 -0 6 12 -1 1 2 2 2 4
1 -7 -5 1 -6 -0 -3 16 9 -4 -6 -1 -1 -1 -1 1 3 4 2 5 4 2
-15 -7 4 -7 3 3 -1 3 -0 -1 2 -1 4 2 0 1 -1 -0 2 4 -0 4
2 27 14 3 6 -0 5 3 3 -2 -1 1 -1 -5 -2 -1 1 3 1 4 2 2
-1 9 6 0 2 -1 -4 2 -4 1 2 -0 -2 -1 -0 2 1 3 6 3 3 2
-3 -0 2 0 0 1 2 4 3 1 -1 1 0 0 2 2 3 -0 -2 -1 1 -1
2 -3 -2 1 7 2 1 5 -4 4 3 1 -1 2 1 3 -2 -4 -2 -0 -1 -1
0 -1 -3 0 -1 4 1 -0 3 2 2 -0 3 4 4 4 -2 -3 0 -3 1 2
4 11 6 2 4 1 1 1 -0 1 1 -1 -1 1 -0 13 -1 9 21 4 0 2
4 1 -0 1 0 -1 -3 -1 -1 -2 -1 0 0 3 3 -0 -0 5 -1 3 3 2
-3 -2 0 0 -1 -1 -1 -2 -1 -1 -0 0 2 2 2 1 1 1 -1 3 -2 -0
-1 0 -1 -2 -1 -1 -0 1 1 2 2 2 1 1 3 -1 -1 1 -1 -0 2 2
Height
5676 5682 5688 5692 5696 5700 5705 5710 5711 5712 5713 5715 5715 5715 5716 5719 5722 5722 5723 5724 5725 5726
5666 5671 5676 5679 5684 5689 5695 5696 5700 5700 5702 5702 5704 5705 5707 5709 5711 5712 5713 5714 5715 5717
5655 5660 5665 5669 5674 5679 5683 5684 5686 5688 5690 5691 5693 5695 5695 5698 5702 5704 5706 5705 5707 5707
5646 5648 5655 5659 5662 5665 5668 5672 5673 5673 5676 5681 5683 5684 5686 5688 5691 5693 5697 5696 5697 5696
5635 5637 5642 5646 5648 5651 5654 5655 5658 5662 5666 5669 5672 5674 5677 5679 5680 5681 5683 5685 5685 5686
5625 5625 5631 5634 5637 5640 5642 5644 5647 5650 5654 5657 5660 5663 5666 5668 5669 5670 5672 5674 5675 5676
5615 5616 5620 5625 5626 5629 5631 5632 5636 5639 5643 5645 5649 5652 5654 5656 5658 5660 5661 5662 5663 5664
5608 5611 5614 5616 5618 5620 5622 5625 5628 5630 5632 5633 5636 5639 5641 5643 5644 5646 5647 5648 5649 5650
5603 5605 5606 5608 5609 5611 5614 5616 5618 5619 5620 5622 5624 5626 5628 5629 5630 5631 5632 5634 5635 5637
5597 5598 5599 5600 5601 5602 5603 5604 5605 5607 5609 5610 5612 5613 5614 5615 5616 5617 5617 5619 5620 5622
5591 5590 5591 5591 5591 5592 5593 5593 5594 5595 5596 5597 5598 5599 5601 5600 5602 5602 5602 5605 5605 5606
5588 5587 5587 5587 5586 5585 5584 5584 5583 5583 5583 5583 5584 5584 5586 5586 5587 5584 5586 5590 5593 5595
5583 5582 5581 5580 5580 5579 5578 5577 5575 5573 5572 5571 5570 5570 5570 5571 5571 5572 5573 5576 5578 5580
5578 5576 5575 5574 5573 5572 5571 5569 5566 5565 5562 5561 5559 5558 5557 5557 5557 5557 5559 5560 5563 5564